time_stamp(utc),avg(mph),gust(mph),direction(deg),12m_air_temp(f),sonic_u(cm/s),sonic_v(cm/s),sonic_w(cm/s),pressure,2m_air_temp(f),pyranometer(W/m^2)
"2018-10-15 00:02:07+00",0.0,0.0,,56.4,5,12,1,1022.64,54.9,0
"2018-10-15 00:07:07+00",0.0,0.0,,56.3,-36,-5,-1,1022.67,54.8,0
"2018-10-15 00:12:07+00",0.0,0.0,,56.3,-33,1,0,1022.66,54.7,0
"2018-10-15 00:17:07+00",0.0,0.0,,56.3,-21,-4,2,1022.66,54.5,0
"2018-10-15 00:22:07+00",0.0,0.0,,56.4,-28,0,-2,1022.68,54.3,0
"2018-10-15 00:27:07+00",0.0,0.0,,56.5,-30,-16,0,1022.58,54.4,0
"2018-10-15 00:32:07+00",0.0,0.0,,56.5,51,7,-7,1022.61,54.9,0
"2018-10-15 00:37:07+00",0.0,0.0,,56.5,26,30,-2,1022.64,55.1,0
"2018-10-15 00:42:07+00",0.0,0.0,,56.7,44,6,-1,1022.64,55.2,0
"2018-10-15 00:47:07+00",0.0,0.0,,56.7,36,-17,-4,1022.56,55.3,0
"2018-10-15 00:52:07+00",0.0,0.0,,56.7,46,-30,-2,1022.64,55.4,0
"2018-10-15 00:57:07+00",0.0,0.0,,56.8,35,-23,4,1022.67,55.5,0
"2018-10-15 01:02:07+00",0.0,0.0,,56.9,17,-8,-1,1022.68,55.8,0
"2018-10-15 01:07:07+00",0.0,0.0,,57,13,-3,-1,1022.66,55.8,0
"2018-10-15 01:12:07+00",0.0,0.0,,57,-4,-11,4,1022.72,56,0
"2018-10-15 01:17:07+00",0.0,0.0,,56.9,-1,-4,1,1022.72,56,0
"2018-10-15 01:22:07+00",0.0,0.0,,56.9,-4,-4,0,1022.76,56,0
"2018-10-15 01:27:07+00",0.0,0.0,,56.8,8,30,1,1022.66,56,0
"2018-10-15 01:32:07+00",0.0,0.0,,56.9,3,17,7,1022.76,56.1,0
"2018-10-15 01:37:07+00",0.0,0.0,,56.9,41,32,-2,1022.77,55.9,0
"2018-10-15 01:42:07+00",0.0,0.0,,57.1,58,33,0,1022.91,55.8,0
"2018-10-15 01:47:07+00",0.0,0.0,,57.1,50,15,-1,1022.8,55.7,0
"2018-10-15 01:52:07+00",0.0,0.0,,57.3,69,-3,-1,1022.77,55.7,0
"2018-10-15 01:57:07+00",0.0,0.0,,57.4,46,-9,-1,1022.75,55.7,0
"2018-10-15 02:02:07+00",0.0,0.0,,57.4,41,-12,0,1022.84,55.8,0
"2018-10-15 02:07:07+00",0.0,0.0,,57.4,49,0,0,1022.78,55.8,0
"2018-10-15 02:12:07+00",0.0,0.0,,57.4,45,2,1,1022.73,55.7,0
"2018-10-15 02:17:07+00",0.0,0.0,,57.5,53,1,-2,1022.68,55.8,0
"2018-10-15 02:22:07+00",0.0,0.0,,57.6,50,16,0,1022.65,55.8,0
"2018-10-15 02:27:07+00",0.0,0.0,,57.6,33,37,-2,1022.66,55.8,0
"2018-10-15 02:32:07+00",0.0,0.0,,57.6,47,49,-2,1022.59,55.9,0
"2018-10-15 02:37:07+00",0.0,0.0,,57.7,21,63,0,1022.63,56,0
"2018-10-15 02:42:07+00",0.0,0.0,,57.7,43,105,-1,1022.58,56,0
"2018-10-15 02:47:07+00",0.0,0.0,,57.7,40,124,-3,1022.72,56.1,0
"2018-10-15 02:52:07+00",0.0,0.0,,57.8,29,147,4,1022.79,56.2,0
"2018-10-15 02:57:07+00",0.0,0.0,,57.8,38,141,0,1022.85,56.2,0
"2018-10-15 03:02:07+00",0.0,0.0,,57.8,40,128,1,1022.83,56.1,0
"2018-10-15 03:07:07+00",0.0,0.0,,57.8,79,131,8,1022.76,56.1,0
"2018-10-15 03:12:07+00",0.0,0.0,,57.5,94,94,-5,1022.77,56.2,0
"2018-10-15 03:17:07+00",4.3,5.3,,57.5,163,77,6,1022.82,56.2,0
"2018-10-15 03:22:07+00",6.0,7.0,,57.7,214,145,13,1022.66,56.2,0
"2018-10-15 03:27:07+00",5.5,6.5,,57.9,158,153,8,1022.76,56.3,0
"2018-10-15 03:32:07+00",6.1,6.1,,57.4,194,162,10,1022.71,56.5,0
"2018-10-15 03:37:07+00",5.8,5.8,,57.4,155,160,5,1022.77,56.5,0
"2018-10-15 03:42:07+00",4.4,5.4,,57.3,126,120,2,1022.75,56.5,0
"2018-10-15 03:47:07+00",4.6,5.6,,57.4,157,108,8,1022.72,56.5,0
"2018-10-15 03:52:07+00",4.5,5.5,,57.4,137,122,6,1022.76,56.5,0
"2018-10-15 03:57:07+00",4.8,4.8,,57.5,141,126,10,1022.81,56.5,0
"2018-10-15 04:02:07+00",4.6,4.6,,57.4,128,121,6,1022.57,56.4,0
"2018-10-15 04:07:07+00",3.9,3.9,,57.6,128,96,2,1022.43,56.4,0
"2018-10-15 04:12:07+00",3.5,3.5,,57.6,122,78,11,1022.38,56.5,0
"2018-10-15 04:17:07+00",3.3,4.3,,57.9,105,78,4,1022.33,56.6,0
"2018-10-15 04:22:07+00",3.5,3.5,,58,103,90,2,1022.34,56.6,0
"2018-10-15 04:27:07+00",4.1,4.1,,58.5,144,86,10,1022.33,56.7,0
"2018-10-15 04:32:07+00",4.3,4.3,,58.9,141,105,15,1022.36,56.8,0
"2018-10-15 04:37:07+00",3.8,3.8,,59.2,116,98,7,1022.29,57,0
"2018-10-15 04:42:07+00",3.4,3.4,,59.5,103,83,-2,1022.25,57.2,0
"2018-10-15 04:47:07+00",2.3,3.3,,59.8,71,56,2,1022.25,57.4,0
"2018-10-15 04:52:07+00",1.3,2.3,,59.9,34,33,-1,1022.28,57.6,0
"2018-10-15 04:57:07+00",1.5,2.5,,60.1,55,18,5,1022.17,57.7,0
"2018-10-15 05:02:07+00",0.0,0.0,,60.2,68,-33,-12,1022.16,57.9,0
"2018-10-15 05:07:07+00",2.1,3.1,,60.4,9,-81,-4,1022.11,58.2,0
"2018-10-15 05:12:07+00",1.7,2.7,,60.4,-26,-92,9,1022.06,58.3,0
"2018-10-15 05:17:07+00",3.3,4.3,,60.6,-48,-131,5,1022.01,58.4,0
"2018-10-15 05:22:07+00",3.0,4.0,,60.8,-39,-118,-1,1021.96,58.8,0
"2018-10-15 05:27:07+00",4.6,6.6,,61,-69,-181,-4,1021.94,59.4,0
"2018-10-15 05:32:07+00",5.7,6.7,,61,-95,-221,3,1021.83,59.6,0
"2018-10-15 05:37:07+00",5.8,6.8,,61.1,-105,-223,-1,1021.78,59.6,0
"2018-10-15 05:42:07+00",5.5,6.5,,61.2,-99,-210,-1,1021.76,59.7,0
"2018-10-15 05:47:07+00",5.8,6.8,,61.2,-101,-225,-5,1021.79,59.8,0
"2018-10-15 05:52:07+00",7.2,8.2,,61.5,-157,-271,2,1021.88,60,0
"2018-10-15 05:57:07+00",6.8,7.8,,61.5,-132,-263,-4,1021.85,60.1,0
"2018-10-15 06:02:07+00",7.2,8.2,,61.6,-191,-261,5,1021.93,60.1,0
"2018-10-15 06:07:07+00",7.2,8.2,,61.6,-193,-262,-2,1021.96,60.3,0
"2018-10-15 06:12:07+00",7.3,8.3,,61.7,-146,-283,0,1021.78,60.4,0
"2018-10-15 06:17:07+00",7.7,8.7,,61.6,-142,-303,1,1021.65,60.5,0
"2018-10-15 06:22:07+00",6.5,7.5,,61.6,-103,-260,3,1021.68,60.6,0
"2018-10-15 06:27:07+00",6.4,8.4,,61.6,-70,-250,-3,1021.6,60.6,0
"2018-10-15 06:32:07+00",7.4,8.4,,61.6,-99,-296,-8,1021.63,60.7,0
"2018-10-15 06:37:07+00",8.1,10.1,,61.7,-126,-319,-10,1021.65,60.8,0
"2018-10-15 06:42:07+00",7.5,8.5,,61.9,-144,-288,-5,1021.62,60.9,0
"2018-10-15 06:47:07+00",8.4,10.4,,62.1,-153,-321,-2,1021.66,61,0
"2018-10-15 06:52:07+00",8.7,9.7,,62.3,-208,-323,-5,1021.58,61.2,0
"2018-10-15 06:57:07+00",6.9,7.9,,62.1,-185,-254,7,1021.68,61.2,0
"2018-10-15 07:02:07+00",9.0,11.0,,62.3,-240,-325,0,1021.65,61.2,0
"2018-10-15 07:07:07+00",8.7,10.7,,62.3,-338,-197,17,1021.75,61.3,0
"2018-10-15 07:12:07+00",8.0,9.0,,62,-348,-158,17,1021.71,61.3,0
"2018-10-15 07:17:07+00",7.1,8.1,,61.8,-290,-97,13,1021.54,61.2,0
"2018-10-15 07:22:07+00",8.3,9.3,,61.6,-353,-120,9,1021.43,61.1,0
"2018-10-15 07:27:07+00",8.7,10.7,,61.4,-366,-126,5,1021.47,60.9,0
"2018-10-15 07:32:07+00",8.8,10.8,,61.4,-380,-144,13,1021.46,60.8,0
"2018-10-15 07:37:07+00",8.8,9.8,,61.1,-357,-193,13,1021.45,60.7,0
"2018-10-15 07:42:07+00",8.0,9.0,,60.9,-321,-183,5,1021.39,60.6,0
"2018-10-15 07:47:07+00",9.0,11.0,,60.8,-322,-228,22,1021.37,60.4,0
"2018-10-15 07:52:07+00",10.1,12.1,,60.8,-408,-220,15,1021.37,60.3,0
"2018-10-15 07:57:07+00",8.0,9.0,,60.7,-287,-200,17,1021.33,60.3,0
"2018-10-15 08:02:07+00",7.7,8.7,,60.5,-270,-204,12,1021.3,60.2,0
"2018-10-15 08:07:07+00",8.4,10.4,,60.5,-339,-176,17,1021.27,60.1,0
"2018-10-15 08:12:07+00",8.1,9.1,,60.3,-288,-206,12,1021.28,60.1,0
"2018-10-15 08:17:07+00",8.8,9.8,,60.3,-306,-220,16,1021.18,60.1,0
"2018-10-15 08:22:07+00",9.3,11.3,,60.4,-319,-250,16,1021.2,60.1,0
"2018-10-15 08:27:07+00",9.7,12.7,,60.3,-329,-261,22,1021.1,60.1,0
"2018-10-15 08:32:07+00",10.4,11.4,,60.3,-321,-348,7,1021.18,60,0
"2018-10-15 08:37:07+00",8.9,10.9,,60.1,-298,-288,7,1021.16,60,0
"2018-10-15 08:42:07+00",7.4,8.4,,60.1,-231,-232,0,1021.09,59.9,0
"2018-10-15 08:47:07+00",5.4,6.4,,60,-123,-202,3,1020.93,59.8,0
"2018-10-15 08:52:07+00",6.5,7.5,,60,-179,-233,8,1020.98,59.8,0
"2018-10-15 08:57:07+00",5.2,6.2,,60,-95,-200,-2,1020.91,59.8,0
"2018-10-15 09:02:07+00",3.6,4.6,,60,-40,-140,1,1020.87,59.7,0
"2018-10-15 09:07:07+00",1.6,2.6,,60,-7,-68,15,1020.8,59.7,0
"2018-10-15 09:12:07+00",2.6,3.6,,60.1,-35,-99,-2,1020.79,59.7,0
"2018-10-15 09:17:07+00",2.3,3.3,,60.2,-15,-98,8,1020.76,59.7,0
"2018-10-15 09:22:07+00",3.7,4.7,,60.5,5,-155,2,1020.64,59.8,0
"2018-10-15 09:27:07+00",8.8,10.8,,61.5,-35,-370,-3,1020.84,60.5,0
"2018-10-15 09:32:07+00",9.8,12.8,,62.3,4,-411,-2,1020.76,61.4,0
"2018-10-15 09:37:07+00",9.4,12.4,,62.5,-33,-386,0,1020.68,61.8,0
"2018-10-15 09:42:07+00",10.9,13.9,,62.7,7,-462,-28,1020.49,62.1,0
"2018-10-15 09:47:07+00",11.0,13.0,,62.8,62,-465,-13,1020.27,62.2,0
"2018-10-15 09:52:07+00",11.1,13.1,,62.8,137,-451,-9,1020.12,62.2,0
"2018-10-15 09:57:07+00",11.0,13.0,,63.1,109,-455,-10,1020.09,62.3,0
"2018-10-15 10:02:07+00",9.3,11.3,,63.2,80,-363,9,1019.94,62.6,0
"2018-10-15 10:07:07+00",9.9,13.9,,63.5,8,-419,-13,1019.72,62.8,0
"2018-10-15 10:12:07+00",11.2,15.2,,63.9,-64,-471,-8,1019.73,63.2,0
"2018-10-15 10:17:07+00",12.3,15.3,,64.1,-29,-523,-9,1019.73,63.4,0
"2018-10-15 10:22:07+00",10.8,13.8,,64,-100,-447,-6,1019.97,63.5,0
"2018-10-15 10:27:07+00",12.4,14.4,,64.1,-141,-503,-26,1020.21,63.5,0
"2018-10-15 10:32:07+00",10.4,14.4,,63.9,-100,-435,7,1020.3,63.4,0
"2018-10-15 10:37:07+00",12.0,14.0,,63.8,-108,-503,-9,1020.19,63.3,0
"2018-10-15 10:42:07+00",9.6,14.6,,63.9,-75,-398,7,1020.11,63.4,0
"2018-10-15 10:47:07+00",10.6,12.6,,64.1,-88,-442,-15,1020.04,63.5,0
"2018-10-15 10:52:07+00",11.9,14.9,,64.2,-102,-498,-8,1020.08,63.6,0
"2018-10-15 10:57:07+00",11.0,14.0,,64.3,-95,-453,-6,1020.08,63.8,0
"2018-10-15 11:02:07+00",11.8,14.8,,64.3,-114,-503,-15,1020.1,63.8,0
"2018-10-15 11:07:07+00",11.0,14.0,,64.2,-110,-453,2,1020.12,63.7,0
"2018-10-15 11:12:07+00",13.0,16.0,,64.2,-132,-546,-11,1019.98,63.7,0
"2018-10-15 11:17:07+00",14.0,18.0,,64.4,-128,-570,-14,1019.88,63.9,0
"2018-10-15 11:22:07+00",11.9,14.9,,64.4,-87,-514,-19,1019.83,64,0
"2018-10-15 11:27:07+00",11.9,14.9,,64.5,-56,-499,-19,1019.79,64.1,0
"2018-10-15 11:32:07+00",12.0,16.0,,64.6,-59,-506,-19,1019.86,64.1,0
"2018-10-15 11:37:07+00",13.8,17.8,,64.8,-91,-558,-17,1019.69,64.4,0
"2018-10-15 11:42:07+00",13.8,17.8,,64.9,-88,-583,-17,1019.7,64.4,0
"2018-10-15 11:47:07+00",14.5,18.5,,65.1,-95,-603,-10,1019.55,64.6,0
"2018-10-15 11:52:07+00",10.3,15.3,,65,-96,-431,-7,1019.62,64.6,0
"2018-10-15 11:57:07+00",14.7,20.7,,65.2,-103,-615,-15,1019.52,64.7,0
"2018-10-15 12:02:07+00",12.9,16.9,,65.3,-90,-534,0,1019.64,64.8,0
"2018-10-15 12:07:07+00",14.3,19.3,,65.4,-58,-600,-20,1019.66,64.9,0
"2018-10-15 12:12:07+00",14.9,18.9,,65.5,-150,-623,-39,1019.69,65,0
"2018-10-15 12:17:07+00",15.6,20.6,,65.5,-162,-647,-14,1019.67,65.1,0
"2018-10-15 12:22:07+00",14.0,19.0,,65.6,-123,-583,-17,1019.64,65.2,0
"2018-10-15 12:27:07+00",15.0,19.0,,65.7,-115,-641,-15,1019.61,65.3,0
"2018-10-15 12:32:07+00",14.4,20.4,,65.8,-133,-613,5,1019.52,65.4,0
"2018-10-15 12:37:07+00",14.1,19.1,,65.6,-149,-568,9,1019.6,65.3,0
"2018-10-15 12:42:07+00",16.5,20.5,,65.7,-206,-688,-20,1019.54,65.3,0
"2018-10-15 12:47:07+00",15.2,18.2,,65.5,-212,-632,5,1019.64,65.1,0
"2018-10-15 12:52:07+00",14.0,19.0,,65.4,-232,-569,3,1019.76,65,0
"2018-10-15 12:57:07+00",19.6,22.6,,65.4,-381,-769,-4,1019.95,64.9,0
"2018-10-15 13:02:07+00",20.3,23.3,,64.8,-364,-796,-25,1019.98,64.3,0
"2018-10-15 13:07:07+00",18.1,21.1,,64.1,-289,-703,-17,1019.83,63.5,0
"2018-10-15 13:12:07+00",16.6,18.6,,63.7,-300,-631,-20,1019.87,63,0
"2018-10-15 13:17:07+00",15.5,18.5,,63.5,-1003,598,-656,1019.91,62.8,0
"2018-10-15 13:22:07+00",14.4,16.4,,63.1,-447,-282,-122,1019.75,62.6,0
"2018-10-15 13:27:07+00",14.0,17.0,,62.8,-446,-398,-36,1019.87,62.4,0
"2018-10-15 13:32:07+00",14.6,17.6,,62.7,-424,-489,15,1019.89,62.3,0
"2018-10-15 13:37:07+00",12.5,15.5,,62.5,-321,-455,5,1019.89,62.2,0
"2018-10-15 13:42:07+00",15.2,19.2,,62.5,-352,-556,-6,1019.75,62.3,0.2
"2018-10-15 13:47:07+00",12.8,15.8,,62.5,-263,-474,-4,1019.7,62.3,0
"2018-10-15 13:52:07+00",13.4,16.4,,62.5,-226,-521,-1,1019.68,62.4,0.1
"2018-10-15 13:57:07+00",13.0,15.0,,62.6,-207,-516,-12,1019.6,62.5,0
"2018-10-15 14:02:07+00",11.1,13.1,,62.7,-151,-442,6,1019.6,62.6,0.2
"2018-10-15 14:07:07+00",11.9,15.9,,62.9,-130,-489,-6,1019.38,62.7,7.5
"2018-10-15 14:12:07+00",15.3,20.3,,63.1,-217,-615,-1,1019.35,63,0
"2018-10-15 14:17:07+00",17.1,20.1,,63.4,-312,-665,-8,1019.41,63.1,0.1
"2018-10-15 14:22:07+00",16.9,19.9,,63.5,-318,-642,-2,1019.37,63.2,0
"2018-10-15 14:27:07+00",15.9,20.9,,63.5,-257,-628,5,1019.17,63.3,2
"2018-10-15 14:32:07+00",17.5,20.5,,63.7,-366,-654,25,1019.13,63.4,8.4
"2018-10-15 14:37:07+00",21.4,25.4,,63.9,-370,-820,5,1019.05,63.5,1.8
"2018-10-15 14:42:07+00",18.1,21.1,,64,-272,-703,-5,1019.05,63.6,2.6
"2018-10-15 14:47:07+00",21.9,25.9,,64,-386,-828,12,1018.93,63.6,3
"2018-10-15 14:52:07+00",18.3,22.3,,64,-314,-728,8,1018.81,63.7,23
"2018-10-15 14:57:07+00",21.0,25.0,,64.1,-372,-793,-4,1018.63,63.6,29.7
"2018-10-15 15:02:07+00",16.5,18.5,,64.1,-310,-633,24,1018.61,63.7,2.2
"2018-10-15 15:07:07+00",19.5,25.5,,64.2,-363,-742,6,1018.58,63.8,0
"2018-10-15 15:12:07+00",19.7,23.7,,64.3,-312,-751,-8,1018.45,63.9,5.7
"2018-10-15 15:17:07+00",15.1,20.1,,64.4,-242,-602,15,1018.27,64,1.1
"2018-10-15 15:22:07+00",17.6,24.6,,64.5,-357,-663,-4,1018.36,64,0.8
"2018-10-15 15:27:07+00",19.3,22.3,,64.6,-281,-655,83,1018.36,64.1,0
"2018-10-15 15:32:07+00",19.7,22.7,,64.5,-348,-730,12,1018.19,64,1.2
"2018-10-15 15:37:07+00",21.2,24.2,,64.4,-341,-817,1,1017.99,63.9,0
"2018-10-15 15:42:07+00",17.1,20.1,,64.4,-477,-596,17,1017.87,63.9,0
"2018-10-15 15:47:07+00",14.2,17.2,,64.4,-354,-517,16,1017.91,63.9,0
"2018-10-15 15:52:07+00",16.9,19.9,,64.7,-444,-605,26,1017.94,64.1,0
"2018-10-15 15:57:07+00",18.8,22.8,,64.9,-345,-716,26,1017.87,64.3,0
"2018-10-15 16:02:07+00",21.5,24.5,,65.1,-580,-740,17,1018.01,64.4,0
"2018-10-15 16:07:07+00",19.2,22.2,,65.1,-666,-454,52,1018.1,64.4,0
"2018-10-15 16:12:07+00",16.0,20.0,,65,-428,-560,30,1017.95,64.4,0
"2018-10-15 16:17:07+00",17.0,19.0,,65.2,-593,-447,45,1018.02,64.5,0
"2018-10-15 16:22:07+00",19.9,22.9,,65.1,-635,-610,9,1017.8,64.5,1.1
"2018-10-15 16:27:07+00",15.8,19.8,,65.1,-488,-489,9,1017.7,64.5,0.2
"2018-10-15 16:32:07+00",18.2,20.2,,65.2,-516,-626,-13,1017.5,64.6,1.3
"2018-10-15 16:37:07+00",16.1,18.1,,65.5,-467,-552,25,1017.49,64.8,24.6
"2018-10-15 16:42:07+00",17.8,21.8,,65.7,-432,-649,4,1017.23,65,23.3
"2018-10-15 16:47:07+00",14.8,16.8,,65.8,-286,-567,18,1016.92,65.1,50.3
"2018-10-15 16:52:07+00",16.4,19.4,,65.9,-396,-609,4,1016.88,65.3,53.3
"2018-10-15 16:57:07+00",19.2,23.2,,66.1,-415,-727,4,1016.69,65.5,47.3
"2018-10-15 17:02:07+00",17.6,21.6,,66.3,-362,-676,9,1016.64,65.8,57.7
"2018-10-15 17:07:07+00",17.5,22.5,,66.5,-323,-678,0,1016.53,66,65.7
"2018-10-15 17:12:07+00",18.0,21.0,,66.8,-354,-704,5,1016.38,66.3,124.4
"2018-10-15 17:17:07+00",15.8,22.8,,67,-224,-647,-17,1015.9,66.8,135.7
"2018-10-15 17:22:07+00",19.0,23.0,,67.2,-291,-770,-16,1016.01,67,160.2
"2018-10-15 17:27:07+00",17.3,24.3,,67.7,-351,-672,-8,1015.96,67.6,351
"2018-10-15 17:32:07+00",16.4,20.4,,68.2,-410,-615,3,1015.99,68.3,277.6
"2018-10-15 17:37:07+00",18.0,20.0,,68.3,-549,-589,0,1016.19,68.1,69.7
"2018-10-15 17:42:07+00",16.5,19.5,,68.1,-564,-450,34,1016.22,67.8,69.7
"2018-10-15 17:47:07+00",19.6,23.6,,68,-678,-521,12,1016.06,67.6,65.4
"2018-10-15 17:52:07+00",17.5,20.5,,67.9,-623,-460,45,1016.13,67.4,68.3
"2018-10-15 17:57:07+00",19.5,25.5,,68.1,-766,-464,49,1015.96,67.4,147.2
"2018-10-15 18:02:07+00",21.2,25.2,,68.4,-837,-495,50,1016.17,67.7,191.4
"2018-10-15 18:07:07+00",20.3,23.3,,68.5,-743,-507,14,1015.8,68.1,182.4
"2018-10-15 18:12:07+00",23.0,28.0,,68.4,-793,-610,39,1015.54,68.3,225
"2018-10-15 18:17:07+00",19.0,22.0,,68.4,-712,-462,37,1015.73,68.4,182.2
"2018-10-15 18:22:07+00",19.7,22.7,,68.2,-730,-477,43,1015.62,68.4,125.3
"2018-10-15 18:27:07+00",19.2,21.2,,68.2,-683,-483,23,1015.61,68.2,92.7
"2018-10-15 18:32:07+00",18.0,20.0,,68.4,-642,-454,45,1015.5,68.5,211.2
"2018-10-15 18:37:07+00",21.0,26.0,,68.7,-727,-544,33,1015.26,69,202.9
"2018-10-15 18:42:07+00",21.5,24.5,,68.6,-743,-571,5,1015.28,69,142.7
"2018-10-15 18:47:07+00",20.3,24.3,,68.5,-733,-526,19,1015.29,69,168.3
"2018-10-15 18:52:07+00",16.0,19.0,,68.5,-593,-405,45,1015.26,68.9,114.1
"2018-10-15 18:57:07+00",17.5,19.5,,68.7,-626,-446,29,1015.27,68.9,119.6
"2018-10-15 19:02:07+00",17.6,20.6,,68.8,-639,-441,30,1015.13,69,112.6
"2018-10-15 19:07:07+00",17.1,19.1,,68.9,-613,-425,29,1015.16,69,70.8
"2018-10-15 19:12:07+00",16.2,20.2,,68.9,-605,-391,25,1015.2,69,67.4
"2018-10-15 19:17:07+00",15.2,18.2,,69,-574,-370,18,1015.24,69,83.1
"2018-10-15 19:22:07+00",15.5,17.5,,69.2,-624,-350,12,1015.2,69.2,79.3
"2018-10-15 19:27:07+00",13.8,16.8,,69.3,-588,-278,15,1015.34,69.3,61.7
"2018-10-15 19:32:07+00",13.9,15.9,,69.4,-593,-260,29,1015.26,69.4,56.9
"2018-10-15 19:37:07+00",12.5,13.5,,69.7,-523,-256,12,1015.19,69.5,50.8
"2018-10-15 19:42:07+00",12.7,14.7,,69.7,-529,-272,19,1015.08,69.5,30.3
"2018-10-15 19:47:07+00",11.7,14.7,,69.6,-476,-257,14,1015,69.5,32.8
"2018-10-15 19:52:07+00",12.2,16.2,,69.8,-531,-241,18,1015.01,69.5,33.1
"2018-10-15 19:57:07+00",12.3,15.3,,70,-491,-274,26,1015.09,69.6,33.1
"2018-10-15 20:02:07+00",12.8,13.8,,70.1,-536,-265,19,1015.06,69.7,46.1
"2018-10-15 20:07:07+00",12.6,15.6,,70.1,-473,-308,21,1015.06,69.8,65.8
"2018-10-15 20:12:07+00",14.5,16.5,,70.2,-547,-347,4,1014.9,70,58.1
"2018-10-15 20:17:07+00",10.9,14.9,,70.2,-424,-246,45,1014.91,70,44.2
"2018-10-15 20:22:07+00",12.6,13.6,,70.4,-489,-292,31,1014.79,70.2,65.4
"2018-10-15 20:27:07+00",14.6,17.6,,70.7,-531,-376,25,1014.71,70.4,42.3
"2018-10-15 20:32:07+00",16.0,18.0,,70.7,-558,-429,15,1014.65,70.3,26.7
"2018-10-15 20:37:07+00",17.4,20.4,,70.6,-595,-461,12,1014.56,70.2,32.4
"2018-10-15 20:42:07+00",18.8,21.8,,70.7,-693,-473,16,1014.59,70.2,66.3
"2018-10-15 20:47:07+00",16.8,20.8,,71,-628,-417,37,1014.46,70.4,55.1
"2018-10-15 20:52:07+00",16.4,18.4,,70.6,-576,-424,19,1014.59,70.4,38.7
"2018-10-15 20:57:07+00",17.2,22.2,,70.6,-617,-444,29,1014.67,70.3,25.7
"2018-10-15 21:02:07+00",16.6,18.6,,70.4,-575,-447,6,1014.51,70.2,43.8
"2018-10-15 21:07:07+00",16.7,19.7,,70.3,-543,-493,0,1014.36,70.1,42
"2018-10-15 21:12:07+00",18.9,21.9,,70.4,-629,-536,3,1014.22,70.1,39.5
"2018-10-15 21:17:07+00",18.3,22.3,,70.4,-648,-471,30,1014.37,70.2,42
"2018-10-15 21:22:07+00",16.5,19.5,,70.5,-568,-450,24,1014.34,70.4,40.4
"2018-10-15 21:27:07+00",18.7,21.7,,70.4,-618,-527,18,1014.16,70.2,0.6
"2018-10-15 21:32:07+00",18.3,21.3,,70.2,-592,-538,5,1014.02,69.9,2.5
"2018-10-15 21:37:07+00",16.3,20.3,,70.1,-525,-498,20,1013.96,69.7,3.7
"2018-10-15 21:42:07+00",16.2,18.2,,70.1,-541,-441,11,1014.02,69.6,0.8
"2018-10-15 21:47:07+00",15.2,17.2,,69.9,-507,-442,12,1013.87,69.5,0.8
"2018-10-15 21:52:07+00",16.1,18.1,,69.9,-540,-453,14,1013.91,69.3,0
"2018-10-15 21:57:07+00",16.1,19.1,,69.9,-507,-545,8,1013.87,69.2,0
"2018-10-15 22:02:07+00",17.6,21.6,,70.2,-551,-580,-1,1013.91,69.3,0
"2018-10-15 22:07:07+00",17.3,20.3,,70.1,-558,-531,4,1013.74,69.3,0
"2018-10-15 22:12:07+00",15.6,18.6,,69.9,-490,-512,29,1013.51,69.2,0
"2018-10-15 22:17:07+00",16.7,18.7,,69.8,-555,-474,27,1013.78,69,0
"2018-10-15 22:22:07+00",14.1,17.1,,69.5,-454,-402,3,1013.78,68.8,0
"2018-10-15 22:27:07+00",13.0,15.0,,69.1,-445,-350,13,1013.88,68.5,0
"2018-10-15 22:32:07+00",14.4,17.4,,69.2,-488,-398,14,1013.86,68.3,0
"2018-10-15 22:37:07+00",15.4,18.4,,69.4,-533,-408,13,1013.78,68.4,0
"2018-10-15 22:42:07+00",14.9,16.9,,69.3,-511,-391,4,1013.82,68.4,0
"2018-10-15 22:47:07+00",14.7,17.7,,69.3,-513,-388,7,1013.92,68.4,0
"2018-10-15 22:52:07+00",15.7,18.7,,69.4,-501,-482,-7,1013.84,68.4,0
"2018-10-15 22:57:07+00",16.4,18.4,,69.5,-503,-541,-8,1013.7,68.5,0
"2018-10-15 23:02:07+00",14.8,16.8,,69.6,-461,-491,18,1013.51,68.7,0
"2018-10-15 23:07:07+00",15.9,17.9,,69.7,-479,-542,-11,1013.37,68.8,0
"2018-10-15 23:12:07+00",15.7,18.7,,69.5,-404,-583,-4,1013.16,68.8,0
"2018-10-15 23:17:07+00",14.2,16.2,,69.5,-387,-517,-1,1013.26,68.7,0
"2018-10-15 23:22:07+00",13.8,17.8,,69.6,-402,-488,12,1013.4,68.8,0
"2018-10-15 23:27:07+00",13.5,15.5,,69.8,-419,-457,17,1013.42,68.8,0
"2018-10-15 23:32:07+00",14.8,18.8,,70,-433,-523,6,1013.39,69,0
"2018-10-15 23:37:07+00",13.4,15.4,,70.1,-422,-426,1,1013.47,69.1,0
"2018-10-15 23:42:07+00",11.9,14.9,,69.9,-298,-442,-2,1013.27,69.1,0
"2018-10-15 23:47:07+00",11.9,14.9,,70.1,-312,-441,5,1013.17,69.2,0
"2018-10-15 23:52:07+00",13.3,16.3,,70.3,-285,-513,5,1013.05,69.5,0
"2018-10-15 23:57:07+00",15.4,17.4,,70.4,-351,-586,3,1013.03,69.7,0
